Regional Weather Roundup
Issued by NWS Jackson, KY

Home | Current Version | Previous Version | Graphics & Text | Print | Product List | Glossary On
Versions: 1 2 3 4 5 6 7 8 9 10 11 12 13 14 15 16 17 18 19 20 21 22 23 24 25 26 27 28 29 30 31 32 33 34 35 36 37 38 39 40 41 42 43 44 45 46 47 48 49 50
327
ASUS43 KJKL 140910
RWRJKL

EAST KENTUCKY HOURLY WEATHER ROUNDUP
NATIONAL WEATHER SERVICE JACKSON KY
400 AM EST THU DEC 14 2017

NOTE: "FAIR" INDICATES FEW OR NO CLOUDS BELOW 12,000 FEET WITH
NO SIGNIFICANT WEATHER AND/OR OBSTRUCTIONS TO VISIBILITY.

* THESE REPORTS ARE NOT UNDER NWS QUALITY CONTROL AND MAY NOT
  REPORT WEATHER SUCH AS PRECIPITATION AND FOG.

KYZ079-080-083-085-087-088-110-112-115-119-120-141000
...EASTERN KENTUCKY...

CITY           SKY/WX    TMP DP  RH WIND       PRES   REMARKS
JACKSON        CLOUDY    41  29  62 W12G22    29.71R
LONDON         MOCLDY    41  27  57 W13G24    29.77R
SOMERSET*      CLOUDY    37  30  75 W14G20    29.81R WCI  29
MONTICELLO*    PTCLDY    40  30  67 W14       29.83R WCI  32
WILLIAMSBURG*  PTSUNNY   39  27  60 W9        29.78R WCI  33
MIDDLESBORO*   CLEAR     43  26  51 W7        29.77R
HARLAN APT*    MOSUNNY   41  25  52 SW10G20   29.74R
PIKE CO APT*   CLOUDY    42  27  54 SW13G21   29.68R
BIG SANDY APT* CLOUDY    43  30  60 W15G22    29.69R
MOREHEAD APT*  CLOUDY    37  27  65 W16G30    29.76R WCI  28
$$

KYZ035-036-041-042-044-050-067-078-099-141000
...CENTRAL KENTUCKY...

CITY           SKY/WX    TMP DP  RH WIND       PRES   REMARKS
MT STERLING*   CLOUDY    36  28  75 NW14G21   29.78R WCI  27
FLEMING/MASON* CLOUDY    34  24  66 NW17G26   29.77R WCI  23
DANVILLE*      CLOUDY    36  27  69 NW10G26   29.81R WCI  28
LEXINGTON      CLOUDY    38  27  64 W13       29.78R WCI  30
FRANKFORT      CLOUDY    37  24  59 NW14G22   29.79R WCI  28
LOUISVILLE     CLOUDY    38  25  59 NW14G23   29.84R WCI  30
LEBANON*       CLOUDY    37  27  65 NW8       29.82R WCI  31
GLASGOW*       MOCLDY    37  28  69 NW8       29.85R WCI  31
BOWLING GREEN  CLOUDY    39  28  64 NW7       29.86R WCI  34
$$

KYZ091>093-OHZ055-061-077-WVZ005-015-034-035-042-141000
...SOUTHERN OHIO/WEST VIRGINIA...

CITY           SKY/WX    TMP DP  RH WIND       PRES   REMARKS
COVINGTON      CLOUDY    31  22  69 NW22      29.78R WCI  18
COLUMBUS       CLOUDY    28  22  78 NW21G30   29.69R WCI  15
DAYTON         CLOUDY    25  19  78 N20G28    29.76R WCI  11
WILMINGTON     CLOUDY    29  22  75 NW23G35   29.72R WCI  15
HUNTINGTON     CLOUDY    40  27  59 NW18G29   29.68R WCI  31
CHARLESTON     CLOUDY    42  27  55 W9G30     29.63R
PINEVILLE*       N/A     43  25  49 MISG      29.66S
BECKLEY        CLOUDY    38  23  55 W23       29.56R WCI  27
BLUEFIELD      CLOUDY    33  17  51 W18G32    29.59R WCI  22
LOGAN CO APT*  CLOUDY    43  27  52 W14G21    29.62R
$$

VAZ002-007-008-TNZ017-027-036-066-071-141000
...SOUTHWEST VIRGINIA/EAST TENNESSEE...

CITY           SKY/WX    TMP DP  RH WIND       PRES   REMARKS
WISE*          MOCLDY    34  23  64 SW10      29.69R WCI  26
JONESVILLE*      N/A     36  19  51 W5        29.78R WCI  32
ABINGDON*      PTCLDY    40  21  46 W12       29.70R WCI  33
BRISTOL        CLEAR     42  23  46 SW16      29.73R
MORRISTOWN*    CLOUDY    39  21  48 W10       29.77R WCI  32
SEVIERVILLE*   PTSUNNY   45  23  42 SW9       29.79R
KNOXVILLE      CLEAR     38  26  62 SW10      29.81R WCI  31
LAFOLLETTE*    PTSUNNY   32  23  69 CALM      29.81S
OAK RIDGE      CLEAR     31  22  69 SW5       29.83R WCI  26
CROSSVILLE     CLEAR     36  22  56 W6        29.80R WCI  31
NASHVILLE      CLEAR     42  28  57 NW9       29.86R
$$

...KEY TO REMARKS...
VSB - VISIBILITY IN MILES
WCI - WIND CHILL INDEX
HX  - HEAT INDEX

$$




USA.gov is the U.S. government's official web portal to all federal, state and local government web resources and services.